Theta_e
334 338 351 355 354 353 353 352 351 352 351 351 351 351 352 351 350 348 347 345 344 343 340 338 336 336 340 343 343 346 345 344 344 345 347 348 347 348 348 348 348 347 350
334 338 349 353 355 354 354 353 352 351 351 351 351 352 351 350 349 347 345 343 342 341 338 336 333 332 335 338 341 342 342 341 342 341 342 343 345 346 346 345 346 347 348
334 340 350 351 354 353 353 353 352 351 351 351 352 351 350 349 346 345 344 342 340 339 337 335 332 330 329 333 337 339 338 339 339 340 339 341 341 342 344 343 343 343 345
336 343 348 347 352 354 354 353 352 351 351 351 350 350 349 348 347 345 343 340 339 337 336 333 330 328 327 330 334 335 340 340 339 338 339 339 338 340 341 340 340 340 340
337 344 347 345 350 353 353 352 352 351 351 350 350 349 348 346 346 343 341 339 337 335 335 333 329 327 326 329 332 338 340 338 337 338 339 340 339 339 339 338 337 337 338
338 343 344 346 347 352 353 352 350 351 352 351 349 348 347 344 342 340 339 338 336 333 333 331 327 325 324 327 329 337 338 336 333 336 336 337 338 338 337 336 335 335 337
337 341 344 346 348 351 352 351 350 350 350 349 348 347 345 342 340 339 337 336 333 332 332 330 326 323 322 324 328 333 332 329 331 331 332 334 337 336 336 334 333 333 334
335 339 342 339 342 346 349 349 349 349 349 348 347 346 344 341 339 337 335 333 332 331 330 329 325 322 320 321 323 325 327 324 325 326 327 329 332 334 333 331 331 331 332
334 336 340 342 341 336 340 343 345 345 345 346 345 345 342 339 338 336 335 332 331 329 329 327 325 322 319 317 317 318 320 320 321 321 321 325 330 330 329 329 329 330 329
330 332 335 339 340 344 345 336 338 339 340 340 341 338 334 334 333 331 329 331 330 329 328 326 324 322 318 313 314 311 309 310 313 315 318 321 327 326 326 327 326 328 326
319 326 331 335 339 340 343 337 334 335 335 334 334 330 329 333 332 329 326 329 330 329 328 326 324 320 311 304 305 306 302 302 307 308 310 317 324 324 324 324 325 326 326
302 305 320 331 335 336 338 341 339 340 342 341 341 339 337 332 329 327 323 326 327 326 327 326 323 315 307 302 300 300 299 299 301 303 305 312 320 323 323 323 325 325 325
299 302 304 320 332 335 336 338 339 336 336 335 335 334 331 328 327 326 325 324 323 318 320 319 317 314 310 305 302 300 299 299 300 300 301 308 313 319 323 323 324 324 324
298 301 304 307 327 331 336 336 334 332 332 333 333 331 328 326 324 324 322 321 320 318 317 315 314 312 310 305 301 300 299 299 299 299 300 303 309 313 318 325 324 324 325
297 299 303 308 322 329 332 331 330 330 330 329 329 328 329 325 324 323 321 319 319 316 316 313 311 312 310 307 304 301 299 299 299 299 299 301 306 311 314 318 326 326 325
296 298 303 313 323 328 327 327 326 326 326 326 325 325 325 325 324 322 319 318 317 316 313 312 311 311 309 306 305 302 300 299 298 298 298 299 302 307 311 315 318 326 328
295 298 303 317 323 324 322 320 318 316 314 312 313 314 317 320 320 319 317 316 314 313 311 309 307 306 305 303 305 303 301 299 298 298 298 298 299 301 306 311 316 319 326
294 297 302 313 314 312 309 307 304 303 302 302 302 304 306 311 315 315 313 311 311 310 310 309 307 306 305 302 302 305 302 300 300 299 298 298 298 299 302 307 312 316 320
293 295 299 303 304 303 301 300 299 298 298 297 297 298 299 301 307 309 308 308 310 309 308 307 306 303 304 303 300 302 303 302 302 299 299 298 298 299 300 302 306 308 312
292 294 295 297 300 300 300 298 297 295 294 293 293 293 294 296 297 300 300 300 304 303 302 302 302 302 300 297 298 300 303 302 300 298 298 297 297 297 298 299 302 304 306
290 291 292 293 294 297 296 295 292 290 290 289 290 290 290 291 292 294 295 296 297 296 296 297 300 300 301 299 299 302 300 298 295 297 296 295 295 296 296 298 300 302 304
288 289 290 290 292 293 293 292 292 289 288 288 288 288 288 289 289 289 290 290 291 291 292 293 294 296 297 296 294 295 296 298 295 299 294 294 295 295 296 296 297 299 301
285 286 287 288 288 289 291 290 289 288 288 287 286 287 287 287 288 288 288 288 288 289 288 288 290 291 291 294 294 293 293 292 293 297 297 293 294 294 295 295 295 296 298
283 285 287 287 287 287 288 286 286 285 284 285 285 286 286 287 287 287 287 287 287 287 286 287 288 288 289 288 292 293 293 291 289 289 294 298 294 293 296 296 295 295 296
283 283 285 286 286 286 286 286 285 284 284 285 285 285 285 286 286 286 286 286 285 286 286 285 286 286 287 287 287 288 290 290 290 287 287 291 295 297 296 296 296 296 296
283 283 284 284 284 286 285 285 284 284 283 284 284 284 284 285 285 285 285 285 285 285 284 285 285 284 284 285 285 286 286 286 286 288 287 289 289 292 295 296 295 295 296
Wind_Speed
6 9 10 11 14 13 13 12 11 11 12 12 12 11 13 16 16 17 15 15 14 15 14 14 14 13 12 11 10 13 16 14 14 14 15 15 15 16 17 17 12 13 14
4 10 10 9 13 12 11 12 11 11 11 12 11 11 13 16 16 15 15 15 14 14 14 14 14 13 12 10 9 10 11 12 12 12 11 11 12 14 14 16 15 15 16
9 11 11 10 12 13 11 12 11 10 11 11 11 11 13 15 14 14 15 14 13 13 13 14 14 13 12 10 10 9 9 9 9 10 9 8 10 11 13 14 13 14 15
10 12 11 10 11 12 12 12 11 9 9 10 10 10 12 14 16 14 14 15 13 11 12 13 13 13 12 10 10 9 10 9 7 9 7 8 9 12 11 11 13 14 14
8 9 10 9 11 13 12 12 11 9 9 8 9 10 11 10 13 15 12 13 12 10 11 12 12 12 11 10 10 10 10 11 11 8 7 7 7 10 11 11 11 12 13
7 7 8 9 13 11 12 12 10 9 9 8 9 10 11 13 13 13 12 12 11 9 10 11 12 12 11 10 9 10 10 10 8 7 6 6 6 9 9 9 10 10 10
6 6 7 9 9 12 12 12 11 10 9 8 9 9 13 12 13 13 12 11 8 9 9 11 12 12 12 12 11 11 10 10 6 6 6 6 6 8 8 9 9 9 9
6 5 6 6 5 5 12 12 10 9 9 8 8 9 13 13 13 13 13 10 8 7 9 10 11 11 12 12 12 11 11 9 6 6 6 5 9 7 7 7 8 8 9
2 3 4 6 6 5 4 8 9 8 7 7 8 10 12 12 13 13 13 9 7 7 7 8 10 11 11 11 12 11 11 10 6 5 5 4 9 7 7 7 7 7 9
3 0 3 4 5 5 3 5 7 8 7 6 7 9 10 11 12 11 13 9 6 6 6 7 8 10 10 10 11 11 10 9 6 5 4 5 9 7 6 6 6 5 7
4 3 1 3 5 4 4 2 4 6 8 6 5 7 8 5 6 3 8 10 7 6 6 6 7 8 9 9 9 10 8 4 4 3 3 9 9 6 5 5 4 4 5
8 9 5 4 5 4 3 3 2 2 2 4 4 6 5 4 3 4 5 8 8 6 5 5 9 9 7 4 4 6 3 4 3 3 3 9 8 8 6 4 3 4 2
9 6 8 6 5 6 3 2 1 1 1 1 2 2 4 3 3 2 2 2 3 4 2 4 3 3 4 3 3 3 4 3 3 3 4 9 9 7 8 5 3 4 2
10 10 10 7 5 6 3 3 3 2 0 0 2 4 4 2 3 3 2 2 2 2 3 2 2 3 4 4 4 4 4 3 3 3 4 8 9 9 8 9 6 4 6
9 11 10 6 4 4 4 4 4 3 1 3 3 3 1 3 3 2 2 2 2 2 2 2 2 2 3 4 4 4 5 5 5 3 3 8 9 10 9 9 10 7 6
11 12 11 4 6 6 6 7 5 5 6 6 5 5 6 3 2 2 2 3 2 2 2 2 2 2 2 3 4 4 5 4 5 5 3 4 9 9 9 10 10 12 10
10 10 11 7 7 10 11 11 10 9 9 10 9 12 12 8 6 5 4 5 3 3 5 3 2 1 2 3 4 4 4 4 5 6 4 4 4 7 8 9 9 10 13
11 11 11 10 14 15 14 11 10 10 10 9 9 9 14 11 11 7 6 7 4 5 3 3 3 2 3 3 4 4 4 5 6 6 5 5 4 4 5 8 10 11 11
12 11 12 13 15 16 15 13 13 14 11 10 9 10 12 13 11 9 8 7 6 6 6 4 3 3 4 5 5 6 6 6 7 5 7 7 6 6 5 7 10 10 12
12 13 13 11 12 13 11 11 11 11 11 10 10 10 13 11 12 9 9 11 9 8 8 7 5 3 2 5 6 6 7 7 5 4 6 6 5 6 6 5 5 6 11
13 14 14 14 13 8 7 7 9 10 9 12 11 15 16 15 15 14 10 11 11 11 11 11 7 8 6 9 4 7 4 4 4 2 4 4 4 5 6 6 5 4 5
11 12 13 13 13 11 7 7 7 7 9 8 9 13 14 15 14 13 12 11 12 9 13 13 11 5 4 8 6 4 6 3 3 7 2 2 5 4 4 4 6 7 7
13 11 12 12 13 11 10 8 7 6 6 8 9 9 11 13 13 13 13 10 10 9 8 10 10 11 6 4 8 3 5 4 10 2 4 3 4 5 6 6 7 7 7
9 8 11 11 12 11 11 12 14 10 10 6 7 6 8 12 13 12 12 11 10 8 10 8 8 8 7 7 3 6 2 3 4 9 2 8 5 7 9 5 6 8 8
6 8 9 12 13 11 10 12 11 12 8 5 6 10 10 10 12 11 11 11 11 8 9 10 10 10 6 5 5 4 3 4 3 4 11 9 11 8 7 8 7 8 8
5 6 7 12 11 10 11 11 12 11 8 7 7 7 6 5 6 9 9 9 8 8 8 7 7 8 7 6 5 5 4 4 5 6 7 12 16 10 8 8 8 7 7
Wind_Direction
224 184 181 176 152 148 138 132 122 118 119 121 119 123 118 102 88 80 76 68 61 59 53 53 53 54 59 62 65 63 71 59 56 59 59 64 62 60 53 41 39 52 50
169 178 179 170 148 146 144 133 131 132 133 131 130 122 114 104 94 85 75 65 58 54 50 50 49 46 47 51 64 67 66 61 58 56 54 55 58 57 54 45 35 43 51
163 170 175 166 152 152 153 140 141 141 140 136 133 129 117 106 99 94 83 68 54 49 47 47 48 46 42 39 46 52 51 52 58 56 50 58 59 51 45 46 38 44 40
155 165 170 171 157 158 154 148 145 145 144 142 141 128 131 128 125 109 95 78 56 49 49 47 49 45 45 44 46 42 46 46 72 61 62 59 57 55 50 40 36 34 30
158 164 167 176 167 161 158 155 150 150 151 150 144 133 130 121 103 96 86 84 65 47 49 48 49 49 48 47 46 57 59 69 73 71 68 63 58 54 50 46 42 39 35
156 166 172 175 180 165 155 154 157 152 149 137 135 129 123 111 97 87 80 76 78 51 50 48 45 45 42 46 43 65 66 70 71 69 60 55 55 54 44 37 37 38 38
161 173 178 181 186 164 158 160 163 162 159 148 138 128 118 110 99 89 85 77 62 49 51 50 45 43 37 39 37 54 59 58 59 55 50 41 39 32 31 27 26 27 29
159 171 174 186 200 198 164 161 165 166 163 155 145 137 127 120 106 99 88 72 63 45 51 53 50 46 41 38 41 43 50 46 52 47 35 23 1 18 21 20 21 25 24
132 164 189 189 206 224 169 159 166 175 169 160 154 144 131 121 115 109 93 84 67 45 51 61 53 50 46 39 38 41 45 46 44 28 22 12 351 17 15 17 22 24 16
46 106 204 202 204 210 219 176 179 174 172 168 158 139 136 133 134 137 117 110 87 59 53 72 61 60 51 40 39 38 38 41 35 25 16 0 355 9 14 18 14 26 17
14 350 281 216 208 199 227 157 195 215 173 166 155 126 134 137 144 125 127 125 103 82 55 92 76 78 70 53 40 41 41 34 24 19 1 349 353 352 0 3 1 26 31
338 323 311 238 207 189 182 195 163 173 162 138 146 146 154 135 113 107 117 119 112 101 68 92 94 73 56 43 30 31 31 22 26 5 345 347 350 346 335 335 343 355 22
320 325 325 285 213 188 166 138 147 95 121 130 114 91 99 110 117 108 117 110 99 74 60 86 89 51 51 45 32 19 11 7 358 346 333 340 341 331 320 305 292 318 316
337 328 323 309 226 193 141 131 121 101 336 85 147 143 137 129 134 141 115 121 95 75 81 65 62 53 33 26 19 8 4 354 343 333 325 332 332 324 309 308 285 274 283
351 338 330 300 203 158 128 100 73 61 42 63 34 44 91 139 144 131 121 112 98 82 54 75 66 43 12 3 358 349 343 337 329 323 318 322 323 322 313 302 304 273 264
350 351 339 18 131 116 94 85 80 65 55 52 51 47 54 40 55 89 103 76 44 54 70 59 25 13 9 354 342 341 327 315 306 301 299 303 307 312 313 310 303 301 282
351 358 11 36 82 89 83 76 68 59 57 47 39 34 40 37 53 51 39 58 41 34 56 49 51 18 348 336 331 330 315 304 290 285 285 280 286 288 298 299 298 293 289
3 23 34 59 73 74 74 71 69 61 60 54 47 38 40 29 44 50 55 49 28 51 51 50 20 346 355 353 325 321 302 286 281 279 279 273 271 276 281 285 294 296 290
10 26 46 58 75 83 82 79 73 68 62 53 48 40 36 35 38 53 47 35 33 54 44 28 27 7 347 344 326 315 297 284 282 282 276 278 279 283 293 299 299 301 301
32 35 45 54 63 81 83 83 74 67 59 55 50 45 40 42 42 52 46 37 34 39 30 16 14 4 8 344 318 305 297 281 288 295 293 290 289 285 282 286 294 297 305
43 54 47 46 38 57 61 73 65 67 58 54 50 47 46 42 41 42 44 41 39 44 36 27 3 6 16 357 320 318 301 342 350 336 328 329 316 302 303 300 293 285 289
48 51 59 65 63 64 74 81 85 87 68 67 55 50 45 46 45 49 49 45 41 40 34 30 27 9 4 21 350 311 339 339 352 321 330 348 341 338 325 289 275 281 286
45 43 57 58 64 65 75 91 87 78 75 63 51 56 47 53 50 50 52 53 51 47 41 34 25 27 8 350 10 357 338 327 332 2 347 13 347 322 318 313 303 287 274
43 43 60 68 74 69 76 82 82 86 86 70 70 67 57 51 51 47 49 45 45 42 41 33 29 27 22 19 342 8 326 295 329 315 269 316 349 338 315 304 291 287 286
46 51 62 70 66 60 72 83 88 89 88 82 66 65 55 51 47 42 40 39 37 33 29 26 19 19 20 9 5 342 339 312 280 264 304 311 307 312 303 289 294 293 287
60 67 81 87 75 72 76 79 89 94 95 84 67 60 48 42 41 37 30 29 29 24 19 12 9 8 2 353 345 330 318 312 301 292 289 302 302 306 315 289 277 274 278